sat.trackr.live / text

‹ back to catalog

STARLINK-5198

NORAD 54099 · 2022-136BA

PAYLOAD ACTIVE UNKNOWN

§ Identity

Operator
Country
US
Launch date
2022-10-20
Launch site
AFETR
Launch vehicle
Mass (kg)
RCS (m²)

Purposes: comms

External: N2YO · Heavens-Above · Gunter

§ Orbital elements

Epoch: 2026-05-24T22:53:22.597728Z

Period
95.44 min
Inclination
53.2149°
Eccentricity
0.0001121
Mean motion
15.08839813 rev/d
Perigee alt
539.0 km
Apogee alt
540.5 km
Semi-major
6,917.9 km
B*
3.1092e-5
RAAN
351.3090°
Arg perigee
79.2260°
Mean anomaly
280.8858°
Rev number
19,850

§ Raw data

STARLINK-51981 54099U 22136BA  26144.95373377  .00000207  00000+0  31092-4 0  99992 54099  53.2149 351.3090 0001121  79.2260 280.8858 15.08839813198503

JSON: /api/v1/satellites/54099 · /tle

For live sub-satellite position, see the globe view (requires WebGL).

§ Visibility from observer

Set your observer location to see the next 7 days of passes ≥ 10°. The values pass through the URL so the page stays shareable.

No JS? Fill the form by hand. The geolocation button needs JavaScript.